Latest Weather Observations for Bickley

IDW60801

Issued at 5:05 am WST Friday 24 October 2014 (issued every 30 minutes, with the page automatically refreshed every 10 minutes)

About weather observations | Map of weather stations | Latest weather observations for WA | Other Formats
Station Details ID: 009240 Name: BICKLEY Lat: -32.01 Lon: 116.14 Height: 384.0 m
Data from the previous 72 hours. | See also: Recent months at Bickley
Date/Time
WST
Temp
°C
App
Temp
°C
Dew
Point
Rel
Hum
%
Delta-T
°C
Wind Press
QNH
hPa
Press
MSL
hPa
Rain
since 9 am
mm
Dir
 
Spd
km/h
Gust
km/h
Spd
kts
Gust
kts
24/05:00am 11.1 - 9.7 91 0.7 - - - - - - - 0.0
24/04:30am 11.3 - 10.0 92 0.7 - - - - - - - 0.0
24/04:00am 11.4 - 10.0 91 0.7 - - - - - - - 0.0
24/03:30am 11.7 - 10.3 91 0.7 - - - - - - - 0.0
24/03:00am 11.9 - 10.5 91 0.7 - - - - - - - 0.0
24/02:30am 11.8 - 10.4 91 0.7 - - - - - - - 0.0
24/02:00am 11.6 - 10.2 91 0.7 - - - - - - - 0.0
24/01:30am 11.9 - 10.6 92 0.7 - - - - - - - 0.0
24/01:00am 11.9 - 11.4 97 0.3 - - - - - - - 0.0
24/12:30am 12.2 - 12.0 99 0.1 - - - - - - - 0.0
24/12:00am 12.4 - 12.2 99 0.1 - - - - - - - 0.0
 
Date/Time
WST
Temp
°C
App
Temp
°C
Dew
Point
Rel
Hum
%
Delta-T
°C
Wind Press
QNH
hPa
Press
MSL
hPa
Rain
since 9 am
mm
Dir
 
Spd
km/h
Gust
km/h
Spd
kts
Gust
kts
23/11:30pm 12.4 - 12.1 98 0.2 - - - - - - - 0.0
23/11:00pm 12.7 - 12.2 97 0.3 - - - - - - - 0.0
23/10:30pm 12.9 - 12.0 94 0.5 - - - - - - - 0.0
23/10:00pm 13.2 - 11.8 91 0.8 - - - - - - - 0.0
23/09:30pm 13.4 - 11.8 90 0.9 - - - - - - - 0.0
23/09:00pm 13.3 - 12.0 92 0.7 - - - - - - - 0.0
23/08:30pm 13.5 - 12.1 91 0.8 - - - - - - - 0.0
23/08:00pm 13.7 - 12.1 90 0.9 - - - - - - - 0.0
23/07:30pm 14.0 - 11.7 86 1.3 - - - - - - - 0.0
23/07:00pm 14.4 - 10.8 79 1.9 - - - - - - - 0.0
23/06:30pm 15.1 - 10.1 72 2.7 - - - - - - - 0.0
23/06:00pm 16.4 - 11.3 72 2.8 - - - - - - - 0.0
23/05:30pm 17.3 - 12.0 71 3.0 - - - - - - - 0.0
23/05:00pm 17.1 - 12.6 75 2.5 - - - - - - - 0.0
23/04:30pm 17.8 - 11.8 68 3.4 - - - - - - - 0.0
23/04:00pm 18.8 - 12.8 68 3.4 - - - - - - - 0.0
23/03:30pm 17.8 - 12.7 72 2.9 - - - - - - - 0.0
23/03:00pm 18.6 - 12.1 66 3.7 - - - - - - - 0.0
23/02:30pm 19.0 - 11.1 60 4.4 - - - - - - - 0.0
23/02:00pm 19.3 - 11.3 60 4.5 - - - - - - - 0.0
23/01:30pm 19.9 - 11.9 60 4.5 - - - - - - - 0.0
23/01:00pm 19.1 - 12.1 64 4.0 - - - - - - - 0.0
23/12:30pm 19.4 - 12.7 65 3.8 - - - - - - - 0.0
23/12:00pm 17.6 - 12.1 70 3.1 - - - - - - - 0.0
23/11:30am 17.9 - 14.0 78 2.3 - - - - - - - 0.0
23/11:00am 17.4 - 13.7 79 2.1 - - - - - - - 0.0
23/10:30am 15.3 - 13.3 88 1.1 - - - - - - - 0.0
23/10:00am 18.6 - 12.8 69 3.3 - - - - - - - 0.0
23/09:30am 17.2 - 12.5 74 2.7 - - - - - - - 0.0
23/09:00am 17.1 - 13.6 80 2.0 - - - - - - - 1.6
23/08:30am 16.3 - 13.8 85 1.4 - - - - - - - 1.6
23/08:00am 14.7 - 13.9 95 0.5 - - - - - - - 1.6
23/07:30am 14.4 - 14.4 100 0.0 - - - - - - - 1.6
23/07:00am 14.0 - 14.0 100 0.0 - - - - - - - 1.6
23/06:30am 13.9 - 13.9 100 0.0 - - - - - - - 1.6
23/06:00am 13.5 - 13.5 100 0.0 - - - - - - - 1.6
23/05:30am 13.4 - 13.4 100 0.0 - - - - - - - 1.4
23/05:00am 13.2 - 13.2 100 0.0 - - - - - - - 1.4
23/04:30am 12.9 - 12.7 99 0.1 - - - - - - - 1.4
23/04:00am 13.6 - 13.6 100 0.0 - - - - - - - 1.4
23/03:30am 13.6 - 13.6 100 0.0 - - - - - - - 1.2
23/03:00am 13.7 - 13.5 99 0.1 - - - - - - - 1.2
23/02:30am 13.6 - 13.4 99 0.1 - - - - - - - 1.2
23/02:00am 13.4 - 13.2 99 0.1 - - - - - - - 1.2
23/01:30am 12.6 - 12.4 99 0.1 - - - - - - - 1.2
23/01:00am 12.5 - 12.3 99 0.1 - - - - - - - 1.2
23/12:30am 13.3 - 13.0 98 0.2 - - - - - - - 1.2
23/12:00am 13.3 - 13.1 99 0.1 - - - - - - - 1.2
 
Date/Time
WST
Temp
°C
App
Temp
°C
Dew
Point
Rel
Hum
%
Delta-T
°C
Wind Press
QNH
hPa
Press
MSL
hPa
Rain
since 9 am
mm
Dir
 
Spd
km/h
Gust
km/h
Spd
kts
Gust
kts
22/11:30pm 13.4 - 13.2 99 0.1 - - - - - - - 1.2
22/11:00pm 13.1 - 12.3 95 0.4 - - - - - - - 1.0
22/10:30pm 14.4 - 11.6 83 1.5 - - - - - - - 0.0
22/10:00pm 14.8 - 12.3 85 1.4 - - - - - - - 0.0
22/09:30pm 15.2 - 13.7 91 0.9 - - - - - - - 0.0
22/09:00pm 14.8 - 13.5 92 0.7 - - - - - - - 0.0
22/08:30pm 14.8 - 13.3 91 0.8 - - - - - - - 0.0
22/08:00pm 15.0 - 13.2 89 1.0 - - - - - - - 0.0
22/07:30pm 15.2 - 13.1 87 1.2 - - - - - - - 0.0
22/07:00pm 15.6 - 12.5 82 1.7 - - - - - - - 0.0
22/06:30pm 16.2 - 12.9 81 1.9 - - - - - - - 0.0
22/06:00pm 17.0 - 13.7 81 1.9 - - - - - - - 0.0
22/05:30pm 17.7 - 13.8 78 2.3 - - - - - - - 0.0
22/05:00pm 19.2 - 11.0 59 4.5 - - - - - - - 0.0
22/04:30pm 19.0 - 14.7 76 2.5 - - - - - - - 0.0
22/04:00pm 19.9 - 14.3 70 3.3 - - - - - - - 0.0
22/03:30pm 20.7 - 15.0 70 3.4 - - - - - - - 0.0
22/03:00pm 22.0 - 14.4 62 4.5 - - - - - - - 0.0
22/02:30pm 23.2 - 13.4 54 5.8 - - - - - - - 0.0
22/02:00pm 24.9 - 11.8 44 7.6 - - - - - - - 0.0
22/01:30pm 27.1 - 11.2 37 9.2 - - - - - - - 0.0
22/01:00pm 29.2 - 10.3 31 10.9 - - - - - - - 0.0
22/12:30pm 29.2 - 11.7 34 10.3 - - - - - - - 0.0
22/12:00pm 28.3 - 11.8 36 9.7 - - - - - - - 0.0
22/11:30am 27.1 - 13.4 42 8.2 - - - - - - - 0.0
22/11:00am 25.9 - 14.4 49 7.0 - - - - - - - 0.0
22/10:30am 24.7 - 13.3 49 6.8 - - - - - - - 0.0
22/10:00am 23.3 - 14.3 57 5.4 - - - - - - - 0.0
22/09:30am 22.0 - 14.1 61 4.7 - - - - - - - 0.0
22/09:00am 20.8 - 14.2 66 3.9 - - - - - - - 0.0
22/08:30am 18.6 - 13.2 71 3.1 - - - - - - - 0.0
22/08:00am 16.7 - 13.2 80 2.0 - - - - - - - 0.0
22/07:30am 16.0 - 13.1 83 1.6 - - - - - - - 0.0
22/07:00am 14.4 - 12.6 89 1.0 - - - - - - - 0.0
22/06:30am 13.7 - 12.4 92 0.7 - - - - - - - 0.0
22/06:00am 13.4 - 12.3 93 0.6 - - - - - - - 0.0
22/05:30am 12.9 - 12.1 95 0.4 - - - - - - - 0.0
22/05:00am 12.9 - 12.1 95 0.4 - - - - - - - 0.0
22/04:30am 13.1 - 12.2 94 0.5 - - - - - - - 0.0
22/04:00am 13.2 - 12.1 93 0.6 - - - - - - - 0.0
22/03:30am 13.4 - 12.1 92 0.7 - - - - - - - 0.0
22/03:00am 13.6 - 12.0 90 0.9 - - - - - - - 0.0
22/02:30am 13.8 - 11.5 86 1.3 - - - - - - - 0.0
22/02:00am 14.2 - 10.8 80 1.8 - - - - - - - 0.0
22/01:30am 14.7 - 9.9 73 2.5 - - - - - - - 0.0
22/01:00am 15.2 - 9.8 70 2.9 - - - - - - - 0.0
22/12:30am 15.2 - 9.3 68 3.1 - - - - - - - 0.0
22/12:00am 15.2 - 9.1 67 3.2 - - - - - - - 0.0
 
Date/Time
WST
Temp
°C
App
Temp
°C
Dew
Point
Rel
Hum
%
Delta-T
°C
Wind Press
QNH
hPa
Press
MSL
hPa
Rain
since 9 am
mm
Dir
 
Spd
km/h
Gust
km/h
Spd
kts
Gust
kts
21/11:30pm 15.1 - 8.6 65 3.4 - - - - - - - 0.0
21/11:00pm 15.6 - 8.6 63 3.6 - - - - - - - 0.0
21/10:30pm 16.0 - 8.5 61 3.9 - - - - - - - 0.0
21/10:00pm 16.3 - 8.5 60 4.1 - - - - - - - 0.0
21/09:30pm 16.9 - 9.1 60 4.1 - - - - - - - 0.0
21/09:00pm 16.3 - 10.8 70 3.0 - - - - - - - 0.0
21/08:30pm 16.7 - 11.8 73 2.7 - - - - - - - 0.0
21/08:00pm 16.5 - 12.8 79 2.1 - - - - - - - 0.0
21/07:30pm 16.4 - 12.8 79 2.0 - - - - - - - 0.0
21/07:00pm 17.1 - 12.8 76 2.4 - - - - - - - 0.0
21/06:30pm 17.9 - 12.8 72 2.9 - - - - - - - 0.0
21/06:00pm 19.3 - 12.8 66 3.7 - - - - - - - 0.0
21/05:30pm 20.3 - 12.5 61 4.5 - - - - - - - 0.0
21/05:00pm 22.0 - 12.3 54 5.6 - - - - - - - 0.0
21/04:30pm 22.7 - 9.1 42 7.4 - - - - - - - 0.0
21/04:00pm 22.9 - 9.7 43 7.3 - - - - - - - 0.0
21/03:30pm 22.5 - 9.3 43 7.2 - - - - - - - 0.0
21/03:00pm 23.2 - 10.6 45 7.1 - - - - - - - 0.0
21/02:30pm 22.2 - 9.7 45 6.9 - - - - - - - 0.0
21/02:00pm 22.0 - 10.2 47 6.5 - - - - - - - 0.0
21/01:30pm 22.2 - 11.3 50 6.2 - - - - - - - 0.0
21/01:00pm 20.3 - 9.8 51 5.7 - - - - - - - 0.0
21/12:30pm 20.0 - 10.4 54 5.3 - - - - - - - 0.0
21/12:00pm 19.4 - 10.4 56 4.9 - - - - - - - 0.0
21/11:30am 18.5 - 10.6 60 4.3 - - - - - - - 0.0
21/11:00am 17.5 - 10.4 63 3.9 - - - - - - - 0.0
21/10:30am 17.5 - 11.5 68 3.3 - - - - - - - 0.0
21/10:00am 15.4 - 10.4 72 2.7 - - - - - - - 0.0
21/09:30am 14.1 - 10.3 78 2.0 - - - - - - - 0.0
21/09:00am 13.1 - 10.1 82 1.6 - - - - - - - 0.2
21/08:30am 12.9 - 10.6 86 1.2 - - - - - - - 0.2
21/08:00am 12.6 - 11.0 90 0.9 - - - - - - - 0.2
21/07:30am 12.1 - 10.7 91 0.7 - - - - - - - 0.2
21/07:00am 11.4 - 10.6 95 0.4 - - - - - - - 0.2
21/06:30am 10.5 - 10.3 99 0.1 - - - - - - - 0.2
21/06:00am 9.6 - 9.5 99 0.1 - - - - - - - 0.0
21/05:30am 9.6 - 9.5 99 0.1 - - - - - - - 0.0

Other Formats:

Comma delimited format used in spreadsheet applications
http://www.bom.gov.au/fwo/IDW60801/IDW60801.95610.axf

JavaScript Object Notation format (JSON) in row-major order
http://www.bom.gov.au/fwo/IDW60801/IDW60801.95610.json